RH
58 55 52 53 55 52 47 45 45 43 43 42 42 43 43 42 41 39 39 39 37 35 36 37 35 33 31 29 28 27 25 24 25 24 22 24 31 36 36 38 39 41 48 59 68 73 70 68 69 69 71 78 81 80 80 79 78 80 83 84 83 82 80 77 75 73 72 69 67 74 77 71 68 70 69 64 61 64 68 66 59 55 56 52 50
59 57 54 56 57 53 48 45 44 43 44 43 41 40 39 39 38 37 38 38 37 36 33 29 28 29 29 27 27 29 30 30 28 25 23 22 23 26 29 35 40 39 41 52 64 72 72 69 70 71 72 74 76 78 80 80 78 77 80 83 86 85 82 80 78 75 76 75 71 72 72 70 75 80 74 64 63 68 71 70 64 59 58 56 53
58 55 54 56 56 53 49 46 44 42 41 39 36 33 32 33 34 35 35 33 32 31 26 23 24 25 26 28 29 32 33 32 32 30 26 23 23 25 26 28 34 38 41 47 56 63 68 71 71 73 73 71 71 74 77 79 79 78 79 82 85 85 84 84 82 80 80 79 75 71 66 67 77 82 73 61 62 71 74 73 70 63 59 61 60
57 53 52 54 52 49 45 43 42 40 38 35 31 28 28 28 30 33 33 30 27 24 22 22 22 23 26 30 33 34 34 33 35 35 31 27 25 27 28 26 29 37 43 49 54 56 58 63 70 73 72 70 69 70 73 77 80 80 81 82 82 83 84 88 88 86 84 83 81 74 68 70 73 72 68 61 64 76 81 76 72 64 59 62 64
56 52 51 51 47 43 41 40 39 37 37 36 32 29 27 26 27 29 29 28 26 25 24 23 22 23 27 31 34 35 34 34 35 34 33 32 29 30 31 28 28 34 40 44 47 48 47 52 62 70 71 68 66 67 70 74 78 81 82 84 85 84 85 88 90 89 86 84 83 80 74 74 71 67 69 67 65 73 83 81 75 68 63 61 64
52 48 47 45 42 40 39 39 38 37 37 35 31 29 28 27 28 28 28 28 27 28 29 27 26 28 29 30 32 35 35 35 34 33 34 36 37 38 38 34 29 28 32 36 38 41 43 45 49 56 64 66 66 67 70 73 76 78 80 84 85 84 85 87 89 89 88 84 82 79 76 77 76 70 68 68 66 72 81 81 72 66 67 69 69
46 42 42 42 41 41 40 38 38 38 37 33 30 28 28 28 30 31 32 32 31 31 32 31 30 32 32 32 33 36 36 35 36 36 36 38 41 43 43 38 31 27 27 29 32 36 39 39 40 45 54 62 64 64 66 70 72 72 74 79 82 81 82 85 87 89 89 86 82 77 74 76 79 75 68 66 71 77 79 77 68 60 65 75 78
43 40 40 41 41 41 39 36 36 37 36 33 31 30 28 29 32 34 35 35 35 35 35 34 33 33 34 34 34 35 35 36 39 41 39 39 40 42 42 37 32 29 26 25 25 27 27 29 32 36 45 55 59 57 59 64 67 67 68 71 76 78 78 80 84 87 87 86 85 81 76 75 76 73 71 72 76 76 75 73 67 61 62 71 75
42 40 39 39 39 38 36 35 35 34 32 31 31 31 31 32 33 36 36 37 37 37 37 36 36 35 35 35 35 35 35 37 40 42 42 42 40 39 39 35 31 29 26 24 24 24 23 24 26 27 33 44 50 48 49 55 62 65 65 65 67 72 75 78 80 82 84 85 84 83 80 78 75 74 74 73 72 71 70 69 65 62 63 67 69
41 39 37 37 37 35 33 32 31 29 27 26 27 29 31 32 35 37 39 39 38 38 38 38 38 38 37 37 37 37 37 39 41 42 43 43 42 39 37 33 31 29 26 24 24 23 23 26 29 26 25 30 37 38 40 44 50 57 62 63 64 66 70 74 75 76 78 80 81 82 82 80 78 77 75 74 73 71 69 67 63 61 64 68 69
39 37 35 34 33 30 28 27 25 24 23 25 27 27 28 31 34 37 41 43 41 40 41 40 39 39 38 37 38 38 38 40 41 42 42 41 39 37 35 33 31 29 28 26 24 23 22 24 28 28 24 25 29 35 42 45 44 47 54 57 60 61 63 67 71 71 70 72 76 80 81 80 79 78 77 77 76 72 68 67 67 65 66 70 70
36 33 30 29 26 24 23 22 22 22 24 25 27 27 28 29 31 33 38 41 40 41 44 42 40 39 38 38 39 41 42 43 42 41 41 39 38 36 34 33 32 29 27 27 26 26 24 24 26 29 29 29 29 33 44 51 48 47 51 53 54 59 61 62 66 68 67 66 69 73 78 81 81 81 80 79 77 75 72 70 69 68 69 69 69
33 29 25 23 23 22 23 25 26 28 28 28 27 27 27 28 28 29 32 34 36 40 43 42 40 40 41 41 41 44 46 44 42 42 41 40 40 38 35 33 32 31 29 28 28 28 29 29 30 33 35 35 34 34 38 46 51 53 55 54 52 54 59 61 63 67 69 67 65 66 72 78 81 82 84 83 83 84 82 79 77 74 72 71 70
30 26 24 24 24 26 30 31 31 30 30 29 28 28 28 28 28 28 29 31 34 36 38 38 39 42 46 46 45 47 48 44 42 45 45 43 42 42 41 39 37 37 36 33 31 31 33 34 36 39 39 39 39 38 37 42 50 56 61 63 56 49 52 59 61 63 67 69 67 66 68 73 76 79 82 86 89 90 88 86 85 81 79 78 76
29 27 27 28 29 32 33 32 30 29 29 29 29 29 30 30 31 32 34 38 40 41 40 41 44 48 50 49 48 47 47 45 45 47 49 48 46 44 45 44 42 40 40 38 35 33 34 36 39 41 41 40 40 43 47 51 52 52 57 63 59 50 49 54 59 63 67 69 71 71 68 69 70 72 75 80 84 87 87 88 88 88 87 85 82
32 32 34 33 32 33 32 29 29 30 31 30 30 31 31 33 36 39 41 44 46 46 45 47 49 49 49 51 53 52 50 49 49 49 50 50 50 48 48 46 44 43 42 41 39 35 35 37 39 40 41 42 43 45 51 56 56 53 52 55 56 54 52 52 56 63 67 68 68 69 69 69 70 70 71 73 77 80 82 84 88 91 92 89 85
35 36 37 34 32 32 31 30 31 31 31 32 32 32 32 34 38 41 43 45 46 46 47 47 48 47 47 51 55 56 54 52 51 50 50 50 51 52 51 47 44 43 43 44 43 39 37 38 40 41 44 48 48 47 50 53 55 53 51 50 53 55 54 55 60 62 63 65 67 67 69 72 73 71 72 73 75 77 78 80 83 88 90 88 86
37 36 34 32 32 33 31 31 32 31 32 33 31 29 30 32 34 38 42 45 47 46 46 46 46 47 48 50 52 54 56 55 53 51 50 51 53 54 52 48 44 44 45 46 45 44 42 42 42 41 45 50 51 50 50 52 54 55 52 49 52 55 54 56 62 62 58 61 67 67 68 72 74 72 71 73 75 76 77 78 80 82 85 86 86
34 33 33 33 35 36 36 34 33 33 34 34 30 27 28 29 30 33 36 40 44 46 47 47 47 47 48 48 48 51 55 55 53 50 49 51 53 52 48 46 44 44 45 44 43 43 43 44 44 40 41 46 49 49 49 51 56 62 62 57 54 55 54 55 59 60 55 54 59 62 63 67 71 71 70 71 74 74 75 77 78 79 80 81 82
31 32 33 34 35 37 39 38 35 36 36 35 32 28 28 30 32 34 35 37 41 45 47 46 45 44 45 47 49 51 53 55 52 48 46 48 49 46 44 42 41 41 42 40 39 40 41 43 44 43 40 41 42 43 44 47 53 60 66 66 60 55 52 50 50 52 50 48 50 53 56 60 66 72 74 73 73 73 74 76 77 78 77 76 75
30 31 30 30 32 36 39 39 36 37 39 37 33 30 31 34 36 36 35 35 37 39 38 37 38 39 41 44 49 51 53 54 52 47 44 45 46 44 42 42 41 41 42 41 40 41 41 43 45 46 43 40 38 39 40 43 48 54 60 64 63 58 54 48 43 42 41 38 38 41 45 50 58 67 73 74 72 73 75 75 74 74 74 73 72
31 30 28 27 29 34 40 40 38 38 40 37 34 33 34 36 37 35 32 31 32 31 32 32 34 35 36 38 41 43 44 48 50 48 47 48 49 47 46 45 45 45 45 45 44 44 45 46 46 46 44 42 41 41 40 40 42 45 48 52 54 54 52 48 42 38 35 33 31 32 34 39 46 55 63 69 70 71 72 71 68 70 72 73 72
30 29 27 26 27 30 36 38 38 40 40 38 36 36 35 34 35 35 32 31 30 30 31 32 32 33 33 34 34 34 34 38 42 44 46 48 49 50 49 49 49 49 49 49 48 48 48 49 49 48 46 44 43 42 42 41 40 38 37 39 43 43 44 45 43 39 36 32 30 29 29 31 35 41 48 56 59 61 64 64 64 67 72 73 72
28 27 26 26 25 27 30 32 33 35 35 34 34 34 33 34 35 34 31 31 31 31 32 34 34 34 34 32 31 30 30 32 34 36 40 44 46 47 48 49 50 52 53 54 54 53 52 52 53 52 50 48 47 45 43 44 44 42 37 36 36 36 37 40 42 41 37 32 29 28 27 28 30 34 39 43 46 51 57 61 63 67 70 71 73
25 25 26 24 24 26 27 26 28 30 30 30 30 30 33 35 35 32 30 31 32 32 34 36 37 37 38 37 36 34 32 31 31 32 35 40 44 46 47 47 48 50 53 56 58 58 56 55 55 55 53 51 50 48 47 47 49 48 43 38 37 37 37 38 39 39 38 36 35 33 33 36 39 41 42 43 44 47 52 55 60 65 69 72 73
25 25 24 23 24 26 25 24 26 28 27 27 27 28 31 34 33 30 29 31 32 32 35 38 42 43 45 47 46 43 39 34 31 31 33 36 41 46 47 46 47 48 50 53 56 58 57 55 54 55 55 54 53 52 52 52 52 51 48 45 43 43 42 42 42 42 43 42 40 38 39 43 43 42 43 45 46 47 48 50 54 57 59 67 74
25 25 23 22 23 25 24 23 24 26 26 26 27 28 29 31 31 29 30 32 32 34 37 41 44 47 49 51 52 49 45 39 35 34 35 36 40 46 49 48 47 48 48 50 54 59 61 60 59 59 60 59 58 58 57 55 55 55 54 52 51 51 50 48 46 45 46 47 47 44 43 43 41 40 42 43 44 45 44 46 53 54 49 54 68
24 24 23 22 23 24 23 23 24 25 26 27 28 29 29 29 28 28 29 31 31 34 38 42 45 46 47 49 51 51 46 41 40 40 38 38 42 47 50 50 48 47 46 47 50 58 66 70 69 67 66 66 66 65 63 62 61 61 59 57 58 59 59 57 55 53 53 53 53 52 50 48 44 43 45 46 45 46 45 45 52 54 47 46 55
23 23 22 22 23 24 24 24 25 26 27 27 28 29 29 28 27 28 28 29 29 32 37 42 46 45 43 44 49 50 47 44 44 44 42 40 42 48 51 50 48 47 45 45 47 52 60 68 72 70 69 68 67 67 67 66 67 67 65 64 65 65 63 61 63 66 67 67 65 62 60 59 57 54 55 56 55 53 51 48 49 50 48 48 52
23 22 23 23 24 25 25 25 26 27 27 27 28 29 28 27 27 28 27 27 28 29 33 38 41 40 38 40 43 45 45 46 45 44 43 41 40 46 51 50 49 48 47 46 46 48 53 61 68 72 71 69 67 67 67 67 68 70 69 68 68 68 67 67 68 71 74 76 77 74 71 70 67 63 62 64 64 61 57 53 50 48 48 50 53
23 23 23 24 24 25 26 26 27 28 28 27 27 28 27 26 26 27 26 27 27 28 29 31 34 34 34 36 38 37 40 43 43 42 43 40 37 42 49 51 50 51 50 50 50 52 56 61 66 70 73 73 71 70 68 67 67 68 69 69 69 69 71 74 74 74 76 79 80 79 77 75 72 69 67 69 70 69 67 64 60 54 51 51 54
23 23 24 23 23 25 27 26 27 28 26 26 27 27 26 25 25 25 25 25 26 27 27 28 30 31 31 33 33 33 36 40 40 41 42 41 39 41 47 51 53 54 54 54 56 57 59 62 63 65 67 70 72 73 73 73 71 68 66 66 67 67 69 71 72 74 77 80 80 79 79 77 75 73 73 74 75 75 75 75 72 65 59 57 57
22 24 25 22 22 26 27 25 26 27 25 25 27 26 25 26 26 26 25 25 25 26 26 27 28 30 30 29 28 28 32 35 36 37 40 41 43 46 50 53 57 59 59 60 61 62 62 62 63 62 62 64 67 70 74 78 80 75 70 67 66 65 65 65 66 68 70 72 74 76 77 76 74 74 75 76 75 76 77 78 76 70 65 64 65
24 25 26 22 22 26 27 25 26 26 24 24 26 25 26 26 26 26 27 27 26 26 26 26 27 28 28 28 26 26 28 30 29 31 33 35 38 43 46 50 55 59 62 64 65 66 67 67 66 66 65 64 65 67 71 76 79 79 75 72 69 67 65 64 64 66 66 67 68 69 71 71 71 71 72 73 73 73 73 73 72 69 66 65 65
25 27 26 22 23 26 25 24 25 25 23 24 25 25 27 27 27 27 28 27 28 28 27 26 27 27 29 29 27 26 27 27 27 28 29 29 31 33 35 39 43 47 52 58 61 64 67 67 66 67 67 67 66 67 68 71 73 74 75 74 73 72 70 68 67 67 67 67 67 66 65 65 66 66 68 68 68 68 69 69 69 68 66 64 61
25 27 26 22 23 25 25 25 26 25 25 26 26 26 27 28 27 27 28 27 27 28 28 28 28 29 30 30 28 26 27 28 27 27 27 28 28 30 31 33 34 35 38 44 50 54 59 61 62 62 62 63 64 66 67 67 68 69 69 68 68 70 72 73 73 72 71 71 70 70 68 66 64 64 65 65 66 66 66 67 67 66 65 63 61
25 26 25 23 24 26 26 26 27 27 27 28 28 27 27 28 27 27 27 27 27 28 28 28 29 29 31 31 28 27 28 28 28 28 28 27 28 29 30 31 31 31 32 35 38 42 47 52 55 57 58 58 59 61 62 64 65 65 65 63 61 61 64 67 70 72 73 72 71 71 71 70 68 67 66 67 67 68 67 66 65 65 64 63 62
25 26 25 24 25 26 27 27 29 29 29 28 27 26 27 27 27 27 27 27 28 28 28 28 29 30 31 31 29 29 30 30 29 29 29 29 29 29 30 30 30 30 31 32 32 34 37 41 46 50 53 56 57 57 58 58 58 58 59 59 59 58 56 57 60 65 68 70 71 70 71 71 71 71 70 70 70 70 70 69 68 67 66 65 64
25 25 24 25 26 27 28 29 29 30 30 28 27 27 28 28 27 27 28 29 29 29 29 29 29 30 32 32 31 31 32 32 31 30 30 30 30 30 30 31 31 31 31 31 32 32 33 34 37 40 43 46 48 51 53 55 55 55 53 53 53 54 52 52 53 55 57 61 64 66 68 70 71 72 73 74 73 73 72 72 72 72 70 68 67
27 25 24 26 27 28 29 30 29 29 30 29 28 29 29 28 28 28 29 30 30 30 31 32 31 31 33 34 35 34 34 34 33 32 32 32 31 31 32 32 33 33 32 32 32 33 33 33 33 34 35 37 38 40 42 45 49 52 53 53 52 50 48 47 47 48 49 50 52 55 59 62 65 68 70 73 75 75 75 75 75 76 76 75 73
27 25 24 26 29 29 30 31 30 29 29 29 30 32 31 30 30 29 29 30 31 33 35 36 35 34 35 36 37 36 36 36 35 34 34 33 32 32 33 33 34 35 34 34 33 33 34 34 34 34 34 34 34 34 34 35 38 42 45 49 51 52 49 46 44 44 45 46 47 49 51 55 60 65 69 72 73 75 77 78 79 79 80 80 78
26 25 25 28 30 30 32 33 32 31 31 31 32 34 33 31 30 30 30 32 34 35 37 37 37 37 37 37 38 38 37 37 37 36 36 35 34 34 33 34 35 36 36 36 36 36 35 35 35 36 36 36 35 35 34 34 35 35 36 39 42 44 45 44 42 42 41 41 42 44 47 53 60 67 71 73 74 74 76 79 79 80 82 83 82
26 26 27 29 30 31 33 34 34 34 34 35 36 36 36 34 33 33 32 33 34 36 38 39 39 39 40 40 40 40 39 39 38 38 38 37 36 35 35 35 36 36 36 37 37 37 38 38 37 37 38 38 38 38 37 36 36 36 36 36 36 36 35 35 35 35 34 33 33 34 36 43 53 63 70 75 77 78 78 79 79 80 82 84 86
26 27 28 30 31 32 34 35 35 35 36 37 38 39 38 38 38 37 36 36 36 38 40 40 40 40 41 42 43 42 42 42 41 41 40 40 39 38 38 37 38 37 37 37 38 38 38 39 39 39 40 40 40 39 39 39 39 39 38 38 37 35 33 32 30 29 28 28 28 28 29 32 40 51 60 68 76 83 86 86 85 85 84 85 89
28 28 29 29 31 33 35 35 35 37 38 39 41 42 42 43 43 43 43 43 41 39 39 39 39 40 40 41 42 43 44 45 45 44 44 43 42 41 40 40 41 41 40 40 40 40 40 41 41 40 40 41 41 40 40 39 40 40 40 38 37 36 34 33 30 29 27 25 25 25 26 27 31 37 44 50 60 72 81 88 92 93 90 89 91
28 27 29 30 30 34 36 37 38 40 42 43 45 46 45 46 48 50 51 49 45 41 38 37 38 38 38 38 38 39 41 43 45 46 47 47 46 45 44 43 43 44 43 42 42 41 40 40 40 39 38 38 38 38 38 38 39 38 36 35 35 35 34 32 30 28 28 26 25 24 24 24 26 31 35 38 41 49 58 68 79 86 87 88 89
28 28 30 32 33 36 38 40 43 46 48 50 52 51 50 51 53 54 54 52 47 42 39 37 37 37 36 35 35 35 36 38 40 42 44 46 47 47 47 46 45 44 43 42 41 41 39 39 38 37 37 37 36 36 36 37 37 36 33 33 34 34 32 31 29 28 27 26 26 25 24 23 25 29 32 33 33 36 40 45 53 62 71 78 81
28 30 34 35 37 40 43 45 48 51 53 55 56 55 56 58 59 58 55 53 49 45 41 39 37 37 35 33 33 35 35 36 38 39 40 41 42 43 43 42 42 42 42 42 41 41 41 40 40 39 39 39 39 39 39 39 39 37 34 34 36 36 34 31 30 29 28 27 26 26 24 23 25 30 33 33 33 34 34 34 36 42 51 61 68
29 32 36 38 41 45 48 49 52 55 57 58 58 59 62 64 63 60 57 56 53 49 45 39 37 36 36 34 34 36 37 37 37 36 36 36 36 36 36 36 36 37 38 39 39 40 39 39 40 40 40 40 41 41 41 41 40 39 38 38 39 38 36 33 31 31 30 29 28 28 26 25 27 30 33 34 34 34 33 32 31 33 37 44 51
31 34 38 41 44 47 50 52 56 59 60 61 61 62 63 63 61 59 59 58 55 51 46 41 37 37 37 36 37 38 39 38 35 33 32 32 32 32 32 32 32 33 34 35 36 36 36 36 36 37 37 37 38 39 38 37 37 38 38 39 40 39 37 34 33 33 33 32 31 30 30 29 30 33 35 36 36 35 34 34 32 32 32 33 36
33 36 40 43 45 48 52 56 58 60 61 63 63 63 62 61 59 58 58 58 58 54 47 41 38 38 38 38 38 37 36 34 32 30 30 30 29 30 30 31 32 32 33 33 34 34 34 34 35 35 35 35 35 35 35 34 34 34 35 35 35 34 32 31 31 32 33 33 33 33 32 32 35 38 40 39 37 36 36 36 35 35 34 32 30